Total_Precipitation_Accumulation
0.10 0.06 0.16 0.46 0.52 0.08 0.01 0.01 0.01 0.01 0.00 0.00 0.00 0.00 0.00 0.00 0.00 0.00 0.00 0.00 0.02 0.19 0.48 0.31 0.09 0.00 0.00 0.00 0.02 0.01 0.01 0.02 0.01 0.01 0.01 0.02 0.02 0.02 0.02 0.02 0.05 0.06 0.07
0.07 0.06 0.09 0.23 0.58 0.40 0.10 0.03 0.01 0.00 0.01 0.00 0.00 0.00 0.00 0.00 0.01 0.00 0.04 0.18 0.05 0.32 0.42 0.19 0.01 0.00 0.00 0.01 0.01 0.01 0.00 0.00 0.00 0.00 0.00 0.00 0.01 0.01 0.01 0.02 0.04 0.03 0.03
0.01 0.06 0.11 0.16 0.27 0.39 0.21 0.06 0.02 0.00 0.01 0.01 0.00 0.00 0.00 0.00 0.00 0.01 0.20 0.33 0.16 0.32 0.24 0.06 0.00 0.00 0.00 0.00 0.00 0.00 0.00 0.00 0.01 0.00 0.00 0.00 0.02 0.03 0.01 0.02 0.03 0.02 0.02
0.01 0.06 0.27 0.25 0.25 0.32 0.29 0.08 0.04 0.02 0.02 0.01 0.00 0.00 0.00 0.03 0.02 0.03 0.21 0.46 0.23 0.16 0.01 0.00 0.00 0.00 0.00 0.00 0.00 0.01 0.00 0.00 0.00 0.00 0.00 0.01 0.03 0.06 0.05 0.05 0.04 0.07 0.05
0.01 0.06 0.23 0.26 0.31 0.44 0.35 0.16 0.08 0.05 0.04 0.01 0.00 0.00 0.01 0.07 0.05 0.05 0.12 0.29 0.03 0.00 0.00 0.00 0.00 0.00 0.00 0.00 0.00 0.00 0.00 0.00 0.00 0.00 0.01 0.01 0.02 0.02 0.01 0.00 0.01 0.02 0.01
0.00 0.09 0.24 0.28 0.36 0.32 0.33 0.24 0.17 0.14 0.05 0.01 0.00 0.00 0.00 0.06 0.10 0.07 0.06 0.05 0.00 0.00 0.00 0.00 0.00 0.00 0.00 0.00 0.00 0.00 0.00 0.00 0.00 0.00 0.01 0.01 0.02 0.04 0.04 0.03 0.03 0.02 0.01
0.01 0.12 0.55 0.49 0.44 0.34 0.28 0.28 0.21 0.23 0.23 0.02 0.00 0.00 0.00 0.08 0.20 0.08 0.01 0.02 0.00 0.00 0.00 0.00 0.00 0.00 0.00 0.00 0.00 0.00 0.00 0.00 0.00 0.00 0.00 0.01 0.03 0.04 0.03 0.03 0.03 0.02 0.02
0.00 0.02 0.13 0.29 0.34 0.34 0.30 0.30 0.29 0.26 0.25 0.18 0.01 0.00 0.02 0.07 0.16 0.19 0.01 0.02 0.01 0.00 0.00 0.00 0.00 0.00 0.00 0.00 0.00 0.00 0.00 0.00 0.00 0.00 0.00 0.02 0.03 0.03 0.01 0.01 0.01 0.01 0.01
0.00 0.03 0.04 0.08 0.13 0.14 0.15 0.14 0.20 0.32 0.27 0.21 0.12 0.01 0.00 0.02 0.06 0.07 0.02 0.02 0.02 0.01 0.00 0.00 0.00 0.00 0.00 0.00 0.00 0.00 0.00 0.00 0.00 0.00 0.00 0.00 0.01 0.07 0.01 0.00 0.00 0.00 0.00
0.00 0.00 0.03 0.04 0.09 0.13 0.15 0.13 0.13 0.15 0.21 0.22 0.14 0.05 0.00 0.00 0.02 0.05 0.01 0.00 0.00 0.00 0.00 0.00 0.00 0.00 0.00 0.00 0.00 0.00 0.00 0.00 0.00 0.00 0.00 0.00 0.00 0.03 0.01 0.00 0.00 0.00 0.00
0.00 0.00 0.00 0.00 0.01 0.04 0.12 0.13 0.14 0.14 0.16 0.16 0.17 0.13 0.01 0.01 0.02 0.00 0.00 0.00 0.00 0.00 0.00 0.00 0.00 0.00 0.00 0.00 0.00 0.00 0.00 0.00 0.00 0.00 0.00 0.00 0.00 0.00 0.01 0.00 0.00 0.00 0.00
0.00 0.00 0.00 0.00 0.00 0.00 0.04 0.12 0.11 0.13 0.12 0.14 0.15 0.19 0.15 0.15 0.13 0.04 0.04 0.01 0.00 0.00 0.00 0.01 0.00 0.00 0.00 0.00 0.00 0.00 0.00 0.00 0.00 0.00 0.00 0.00 0.00 0.00 0.00 0.00 0.00 0.00 0.00
0.00 0.00 0.00 0.00 0.00 0.00 0.00 0.04 0.15 0.15 0.12 0.17 0.17 0.19 0.17 0.14 0.12 0.11 0.15 0.10 0.06 0.02 0.01 0.01 0.01 0.00 0.00 0.00 0.00 0.00 0.00 0.00 0.00 0.00 0.00 0.00 0.00 0.00 0.01 0.01 0.00 0.00 0.00
0.00 0.00 0.00 0.00 0.00 0.00 0.00 0.00 0.03 0.06 0.07 0.10 0.17 0.20 0.16 0.16 0.12 0.09 0.12 0.12 0.17 0.12 0.07 0.05 0.03 0.01 0.00 0.00 0.00 0.00 0.00 0.00 0.00 0.00 0.00 0.00 0.00 0.00 0.00 0.01 0.01 0.00 0.00
0.00 0.00 0.00 0.00 0.00 0.00 0.00 0.00 0.00 0.02 0.03 0.09 0.12 0.14 0.15 0.12 0.12 0.10 0.08 0.08 0.08 0.09 0.09 0.10 0.06 0.03 0.02 0.01 0.00 0.00 0.00 0.00 0.00 0.00 0.00 0.00 0.00 0.00 0.00 0.00 0.02 0.01 0.00
0.00 0.00 0.00 0.00 0.00 0.00 0.00 0.00 0.00 0.00 0.00 0.01 0.03 0.08 0.13 0.13 0.10 0.10 0.07 0.05 0.05 0.06 0.05 0.08 0.09 0.05 0.03 0.04 0.01 0.00 0.00 0.00 0.00 0.00 0.00 0.00 0.00 0.00 0.00 0.00 0.00 0.01 0.01
0.00 0.00 0.00 0.00 0.00 0.00 0.00 0.00 0.00 0.00 0.00 0.00 0.00 0.03 0.07 0.09 0.12 0.16 0.13 0.11 0.07 0.10 0.14 0.13 0.09 0.08 0.06 0.04 0.03 0.05 0.03 0.01 0.00 0.00 0.00 0.00 0.00 0.00 0.00 0.00 0.00 0.00 0.01
0.00 0.00 0.00 0.00 0.00 0.00 0.00 0.00 0.00 0.00 0.00 0.00 0.00 0.01 0.03 0.06 0.09 0.19 0.21 0.10 0.27 0.32 0.34 0.26 0.24 0.14 0.08 0.09 0.06 0.04 0.05 0.08 0.04 0.02 0.00 0.00 0.00 0.00 0.00 0.00 0.00 0.00 0.00
0.00 0.00 0.00 0.00 0.00 0.00 0.00 0.00 0.00 0.00 0.00 0.00 0.00 0.00 0.02 0.05 0.07 0.10 0.17 0.18 0.30 0.35 0.36 0.31 0.34 0.31 0.25 0.24 0.25 0.18 0.08 0.05 0.09 0.10 0.08 0.05 0.02 0.01 0.00 0.00 0.00 0.00 0.00
0.00 0.00 0.00 0.00 0.00 0.00 0.00 0.00 0.00 0.00 0.00 0.00 0.00 0.00 0.00 0.04 0.14 0.19 0.15 0.15 0.25 0.23 0.22 0.24 0.23 0.28 0.31 0.35 0.31 0.26 0.23 0.21 0.20 0.17 0.17 0.14 0.09 0.10 0.13 0.11 0.05 0.00 0.00
0.00 0.00 0.00 0.00 0.00 0.00 0.00 0.00 0.00 0.00 0.00 0.00 0.00 0.00 0.00 0.03 0.09 0.17 0.13 0.12 0.19 0.15 0.12 0.21 0.21 0.21 0.21 0.27 0.33 0.31 0.31 0.50 0.69 0.70 0.59 0.51 0.44 0.40 0.40 0.29 0.14 0.04 0.01
0.00 0.00 0.00 0.00 0.00 0.00 0.00 0.00 0.00 0.00 0.00 0.00 0.00 0.00 0.00 0.01 0.02 0.04 0.06 0.09 0.14 0.15 0.14 0.16 0.21 0.18 0.13 0.15 0.21 0.21 0.19 0.16 0.27 0.41 0.45 0.31 0.24 0.19 0.17 0.20 0.26 0.21 0.10
0.00 0.00 0.00 0.00 0.00 0.00 0.00 0.00 0.00 0.00 0.00 0.00 0.00 0.00 0.00 0.00 0.00 0.03 0.06 0.10 0.11 0.16 0.15 0.14 0.19 0.22 0.18 0.12 0.14 0.21 0.12 0.04 0.03 0.03 0.06 0.10 0.11 0.11 0.09 0.11 0.14 0.18 0.17
0.00 0.00 0.00 0.00 0.00 0.00 0.00 0.00 0.00 0.00 0.00 0.00 0.00 0.00 0.00 0.00 0.00 0.02 0.07 0.13 0.13 0.16 0.17 0.16 0.18 0.21 0.23 0.22 0.17 0.15 0.13 0.10 0.07 0.04 0.04 0.04 0.03 0.03 0.04 0.05 0.05 0.07 0.10
0.00 0.00 0.00 0.00 0.00 0.00 0.00 0.00 0.00 0.00 0.00 0.00 0.00 0.00 0.00 0.00 0.00 0.00 0.02 0.08 0.13 0.16 0.19 0.26 0.26 0.21 0.20 0.26 0.24 0.22 0.24 0.31 0.28 0.19 0.11 0.04 0.02 0.02 0.03 0.03 0.03 0.02 0.02
0.00 0.00 0.00 0.00 0.00 0.00 0.00 0.00 0.00 0.00 0.00 0.00 0.00 0.00 0.00 0.00 0.00 0.00 0.02 0.03 0.06 0.10 0.16 0.23 0.29 0.31 0.26 0.25 0.25 0.24 0.20 0.20 0.25 0.31 0.33 0.24 0.20 0.12 0.09 0.06 0.04 0.03 0.03